Muskogee, OK

6:34 PM CST on February 26, 2017 (GMT -0600)
Davis

Weather History for KMKO - August, 2013

Change the Weather History Date:

Monday, August 12, 2013

  Actual Average Record
Temperature  
Mean Temperature 78 °F -  
Max Temperature 84 °F 90 °F 105 °F (1999)
Min Temperature 72 °F 67 °F 54 °F (2004)
Cooling Degree Days 13    
Growing Degree Days 28 (Base 50)    
Moisture  
Dew Point 74 °F    
Average Humidity 93    
Maximum Humidity 100    
Minimum Humidity 74    
Precipitation  
Precipitation 0.20 in - - ()
Sea Level Pressure  
Sea Level Pressure 30.02 in    
Wind  
Wind Speed 5 mph (SE)    
Max Wind Speed 16 mph    
Max Gust Speed 24 mph    
Visibility 7 miles    
Events Rain , Thunderstorm    
Averages and records for this station are not official NWS values.
T = Trace of Precipitation, MM = Missing Value Source: NWS Daily Summary

Daily Weather History Graph

Daily Weather History Graph

Search for Another Location

Airport or City:

Trip Planner

Search our weather history database for the weather conditions in past years. The results will help you decide how hot, cold, wet, or windy it might be!

Date:

Astronomy

Aug. 12, 2013 Rise Set
Actual Time 6:38 AM CDT 8:13 PM CDT
Civil Twilight 6:11 AM CDT 8:41 PM CDT
Nautical Twilight 5:38 AM CDT 9:13 PM CDT
Astronomical Twilight 5:03 AM CDT 9:48 PM CDT
Moon 12:15 PM CDT (8/12) 11:22 PM CDT (8/12)
Length of Visible Light 14h 30m
Length of Day
13h 35m
Waxing Crescent, 31% of the Moon is Illuminated
Aug 12
Waxing Crescent
Aug 14
First Quarter
Aug 20
Full
Aug 28
Last Quarter
Sep 5
New

Hourly Weather History & Observations

Time (CDT) Temp. Heat Index Dew Point Humidity Pressure Visibility Wind Dir Wind Speed Gust Speed Precip Events Conditions
12:53 AM 73.0 °F - 73.0 °F 100% 30.02 in 6.0 mi SE 4.6 mph - N/A   Clear
1:53 AM 73.0 °F - 73.0 °F 100% 30.01 in 10.0 mi Calm Calm - N/A   Clear
2:53 AM 73.9 °F - 73.0 °F 97% 30.00 in 10.0 mi Calm Calm - N/A   Clear
3:53 AM 72.0 °F - 72.0 °F 100% 29.99 in 10.0 mi Calm Calm - N/A   Clear
4:53 AM 73.0 °F - 73.0 °F 100% 29.99 in 5.0 mi South 4.6 mph - N/A   Clear
5:53 AM 73.0 °F - 73.0 °F 100% 29.99 in 5.0 mi Calm Calm - N/A   Clear
6:38 AM 73.4 °F - 73.4 °F 100% 30.02 in 2.5 mi SSE 3.5 mph - N/A   Clear
6:53 AM 73.0 °F - 73.0 °F 100% 29.99 in 2.0 mi South 5.8 mph - N/A   Clear
7:03 AM 73.4 °F - 73.4 °F 100% 30.02 in 1.8 mi South 4.6 mph - N/A   Clear
7:18 AM 73.4 °F - 73.4 °F 100% 30.02 in 2.0 mi SSE 4.6 mph - N/A   Clear
7:37 AM 75.2 °F - 75.2 °F 100% 30.02 in 3.0 mi SSE 4.6 mph - N/A   Clear
7:53 AM 75.0 °F - 75.0 °F 100% 30.00 in 4.0 mi SSE 3.5 mph - N/A   Clear
8:53 AM 78.1 °F - 77.0 °F 96% 30.02 in 9.0 mi SE 3.5 mph - N/A   Clear
9:53 AM 82.0 °F 89.4 °F 75.9 °F 82% 30.02 in 10.0 mi South 5.8 mph - N/A   Partly Cloudy
10:53 AM 82.9 °F 90.8 °F 75.9 °F 79% 30.04 in 10.0 mi SW 3.5 mph - N/A   Mostly Cloudy
11:15 AM 80.6 °F 86.2 °F 75.2 °F 84% 30.08 in 10.0 mi West 11.5 mph - N/A Thunderstorm Mostly Cloudy
11:53 AM 79.0 °F - 77.0 °F 94% 30.04 in 3.0 mi WSW 5.8 mph - 0.02 in Rain , Thunderstorm Light Thunderstorms and Rain
12:02 PM 78.8 °F - 77.0 °F 94% 30.06 in 2.5 mi SSW 5.8 mph - 0.02 in Rain , Thunderstorm Thunderstorms and Rain
12:09 PM 77.0 °F - 75.2 °F 94% 30.06 in 5.0 mi South 8.1 mph - 0.03 in Rain , Thunderstorm Light Thunderstorms and Rain
12:53 PM 84.0 °F 91.9 °F 75.0 °F 74% 30.03 in 10.0 mi NE 8.1 mph - 0.03 in   Partly Cloudy
1:41 PM 75.2 °F - 71.6 °F 89% 30.06 in 10.0 mi North 16.1 mph 24.2 mph 0.00 in   Overcast
1:53 PM 75.9 °F - 71.1 °F 85% 30.07 in 10.0 mi North 13.8 mph 23.0 mph 0.00 in   Mostly Cloudy
2:03 PM 75.2 °F - 71.6 °F 89% 30.09 in 9.0 mi NNW 9.2 mph - 0.01 in Rain , Thunderstorm Light Thunderstorms and Rain
2:15 PM 73.4 °F - 71.6 °F 94% 30.07 in 2.0 mi North 8.1 mph - 0.08 in Rain , Thunderstorm Heavy Thunderstorms and Rain
2:25 PM 73.4 °F - 71.6 °F 94% 30.08 in 6.0 mi North 6.9 mph - 0.09 in Rain , Thunderstorm Light Rain
2:38 PM 73.4 °F - 71.6 °F 94% 30.07 in 4.0 mi North 6.9 mph - 0.12 in Rain Light Rain
2:53 PM 73.9 °F - 73.0 °F 97% 30.02 in 5.0 mi East 8.1 mph - 0.15 in Rain Rain
3:53 PM 80.1 °F 85.1 °F 75.0 °F 85% 29.96 in 10.0 mi NE 4.6 mph - 0.00 in   Partly Cloudy
4:53 PM 82.0 °F 89.4 °F 75.9 °F 82% 29.95 in 10.0 mi SSE 8.1 mph - N/A   Clear
5:53 PM 82.9 °F 90.2 °F 75.0 °F 77% 29.96 in 10.0 mi South 9.2 mph - N/A   Clear
6:53 PM 79.0 °F - 75.0 °F 88% 29.95 in 10.0 mi SE 5.8 mph - N/A   Partly Cloudy
7:53 PM 79.0 °F - 75.0 °F 88% 29.95 in 10.0 mi East 5.8 mph - N/A   Clear
8:53 PM 77.0 °F - 75.0 °F 94% 29.98 in 10.0 mi ENE 3.5 mph - N/A   Clear
9:53 PM 75.9 °F - 75.0 °F 97% 29.99 in 10.0 mi Calm Calm - N/A   Clear
10:53 PM 75.0 °F - 73.9 °F 96% 29.98 in 10.0 mi Calm Calm - N/A   Clear
11:53 PM 75.0 °F - 73.9 °F 96% 29.97 in 10.0 mi Calm Calm - N/A   Mostly Cloudy